Weather in Seline

Croatia     44°16′30″N   15°28′44″E
temp.,
°C
wind,
m/s
gust,
m/s
humid.,
%
clouds,
%
prec.,
mm/h
press.,
hPa
HPBL,
m
18 may, tue
tue1823:00+10ne22860 0.0 101127
02:00+9ne22751 0.0 101219
05:00+9ne226818 0.0 101312
08:00+14wsw01605 0.0 1014193
11:00+17wsw23560 0.0 1015848
14:00+19w335462 0.0 10141110
17:00+18wsw225384 0.0 1013904
20:00+14ssw1175100 0.0 101313
19 may, wed
wed1923:00+14ne1170100 0.1 101417
02:00+12ene237883 0.6 101348
05:00+11nnw3685100 0.6 1012168
08:00+12sw228483 1.6 1013150
11:00+13wnw3483100 1.8 1013832
14:00+12nne557176 2.4 1014633
17:00+10ne577312 0.0 1015361
20:00+8ne457910 0.0 1015237
20 may, thu
thu2023:00+7ne338031 0.0 101659
02:00+6ne337814 0.0 101655
05:00+7ne337498 0.0 101644
08:00+12ne23611 0.0 1016209
11:00+17n273980 0.0 10162545
14:00+17nnw474196 0.0 10162231
17:00+17nw474643 0.0 10171564
20:00+12n3471100 0.1 101986
21 may, fri
fri2123:00+9nne32763 0.0 102136
02:00+8nne33790 0.0 102249
05:00+7nne33740 0.0 102237
08:00+12nne22605 0.0 1022231
11:00+17nnw2346100 0.0 10221385
14:00+18wnw544814 0.0 10201080
17:00+17wnw465159 0.0 1019535
20:00+13n2261100 0.0 101914
22 may, sat
sat2223:00+11nne214768 0.0 101911
02:00+11ne114618 0.0 101811
05:00+10ene22505 0.0 101714
08:00+14ese22505 0.0 1017148
11:00+18ssw23472 0.0 1017925
14:00+21ssw45405 0.0 10171356
17:00+19ssw334258 0.0 1016921
20:00+15ese22612 0.0 101724